     2.10           OBSERVATION DATA    G (GPS)             RINEX VERSION / TYPE
teqc 2002Apr3 Duncan Agnew 20050511 23:58:27UTC             PGM / RUN BY / DATE
OSX 5.3|G3|cc|OSX 5.3+|G3+                                  COMMENT
BIT 2 OF LLI FLAGS DATA COLLECTED UNDER A/S CONDITION       COMMENT
IVPN 105                                                    MARKER NAME
6893                                                        MARKER NUMBER
Alex Espinoza Nolte Engineering                             OBSERVER / AGENCY
220136893 TRIMBLE 4800 NP 1.20 / SP 1.43                    REC # / TYPE / VERS
N/A TRM4800                                                 ANT # / TYPE
 -2308774.0000 -4823109.0000  3464925.0000                  APPROX POSITION XYZ
        2.0000        0.0000        0.0000                  ANTENNA: DELTA H/E/N
     1     1                                                WAVELENGTH FACT L1/2
     7    C1    L1    L2    P1    P2    S1    S2            # / TYPES OF OBSERV
SNR is mapped to RINEX snr flag value [1-9]                 COMMENT
L1: 3 -> 1; 8 -> 5; 40 -> 9                                 COMMENT
L2: 1 -> 1; 5 -> 5; 60 -> 9                                 COMMENT
  2004     7     7    16    52   30.0000000     GPS         TIME OF FIRST OBS
                                                            END OF HEADER
 04  7  7 16 52 30.0000000  0  8G 3G 9G14G15G18G19G21G22
  21902452.5484     -22047.08259    -12409.51957                  21902450.3174
        46.5004         35.7504
  23093019.4504     -30549.34059    -18370.22557                  23093018.2454
        41.5004         29.2504
  21334775.4904     -89225.03559    -61010.25358                  21334772.7634
        51.5004         40.2504
  20112494.7284     -42447.76259    -23696.12958                  20112492.3734
        52.5004         42.5004
  21235596.5084      39804.61359     27204.67258                  21235592.4394
        50.0004         40.0004
  24065472.1484     -82339.50859    -49143.17757                  24065468.7394
        41.0004         28.0004
  21083322.9824      44040.64159     24537.41258                  21083319.9664
        51.0004         40.0004
  20642599.8824      -4968.23859     -2888.00858                  20642594.3964
        52.0004         43.2504
 04  7  7 16 52 40.0000000  0  8G 3G 9G14G15G18G19G21G22
  21901030.8784     -29516.43449    -18229.78647                  21901029.0924
        46.7504         36.0004
  23090887.7494     -41752.40649    -27099.88447                  23090886.4554
        43.2504         28.5004
  21329328.6884    -117846.34849    -83312.55548                  21329326.1014
        52.0004         40.5004
  20109806.2744     -56577.40649    -34706.23348                  20109803.2884
        52.2504         42.7504
  21237940.1994      52123.48449     36803.79748                  21237936.5934
        49.7504         39.5004
  24059661.3594    -112870.73049    -72933.76647                  24059658.9394
        40.2504         26.0004
  21086021.9564      58222.66049     35588.33048                  21086019.1604
        51.0004         40.0004
  20642230.9554      -6908.00849     -4399.50948                  20642225.4934
        52.5004         42.7504
 04  7  7 16 52 50.0000000  0  8G 3G 9G14G15G18G19G21G22
  21899596.8984     -37052.05149    -24101.71447                  21899594.8764
        47.0004         36.2504
  23088742.6574     -53024.47749    -35883.31247                  23088741.4744
        42.5004         28.7504
  21323866.3684    -146549.74249   -105678.84448                  21323864.0944
        51.7504         40.0004
  20107100.3514     -70797.28149    -45786.66248                  20107097.5244
        52.5004         43.0004
  21240263.4534      64330.12949     46315.44148                  21240260.0734
        50.0004         39.5004
  24053834.0654    -143492.62949    -96794.96647                  24053831.9614
        39.5004         27.2504
  21088704.4454      72318.20749     46571.86148                  21088701.1644
        51.2504         40.0004
  20641842.1644      -8951.62549     -5991.94648                  20641836.5574
        53.5004         43.0004
 04  7  7 16 52 59.9990000  0  8G 3G 9G14G15G18G19G21G22
  21898157.9534     -44614.73849    -29994.71747                  21898155.7804
        47.0004         36.2504
  23086591.9984     -64325.94149    -44689.64347                  23086590.5304
        42.2504         27.7504
  21318396.7744    -175293.85549   -128076.85448                  21318394.2124
        51.5004         40.7504
  20104384.6914     -85067.46549    -56906.27948                  20104381.8904
        52.5004         43.5004
  21242571.7464      76461.77349     55768.66048                  21242568.1094
        50.5004         39.7504
  24047996.3694    -174163.61749   -120694.43046                  24047995.1064
        38.7504         24.5004
  21091377.2934      86364.26249     57516.83048                  21091373.6804
        50.5004         39.7504
  20641440.7474     -11060.49649     -7635.22048                  20641435.3684
        53.5004         43.5004
 04  7  7 16 53  9.9990000  0  8G 3G 9G14G15G18G19G21G22
  21896718.1764     -52179.08649    -35889.01347                  21896715.5444
        46.5004         36.0004
  23084440.8874     -75631.98449    -53499.56247                  23084439.1604
        42.0004         27.5004
  21312923.3744    -204057.37549   -150489.98048                  21312920.9404
        51.7504         41.0004
  20101664.1974     -99363.77049    -68046.25348                  20101661.9084
        52.0004         43.5004
  21244871.8174      88547.79749     65186.33147                  21244868.3694
        49.0004         39.0004
  24042155.1364    -204862.73849   -144615.79446                  24042153.8434
        39.5004         25.0004
  21094046.6154     100390.56649     68446.41248                  21094043.3664
        50.7504         39.7504
  20641031.9394     -13208.18749     -9308.74748                  20641026.6064
        53.5004         43.0004
 04  7  7 16 53 19.9990000  0  8G 3G 9G14G15G18G19G21G22
  21895282.2414     -59724.61349    -41768.65047                  21895279.9944
        46.5004         35.5004
  23082291.7564     -86921.71549    -62296.77547                  23082290.7914
        41.7504         27.2504
  21307450.2144    -232817.69149   -172900.61548                  21307447.9334
        50.7504         40.0004
  20098942.6454    -113665.01249    -79190.08148                  20098940.3954
        52.2504         43.5004
  21247166.5694     100606.59449     74582.78147                  21247163.2034
        49.0004         39.2504
  24036312.5054    -235567.18049   -168541.31346                  24036310.8694
        39.0004         24.5004
  21096715.3944     114415.35949     79374.81147                  21096711.9744
        51.0004         39.2504
  20640619.7894     -15374.76649    -10997.00048                  20640614.2614
        54.2504         43.2504
 04  7  7 16 53 29.9990000  0  8G 3G 9G14G15G18G19G21G22
  21893853.2334     -67236.69949    -47622.22747                  21893850.9874
        46.5004         35.0004
  23080149.1794     -98180.51249    -71069.85147                  23080148.3884
        42.0004         27.5004
  21301980.4744    -261560.21949   -195297.37948                  21301978.3944
        51.0004         40.2504
  20096223.1754    -127956.57849    -90326.35848                  20096220.8054
        52.2504         43.5004
  21249459.0274     112652.73049     83969.38347                  21249455.2684
        49.2504         39.2504
  24030471.2564    -266262.26649   -192459.56746                  24030469.7824
        38.5004         22.7504
  21099386.4864     128453.25049     90313.41847                  21099382.9874
        51.0004         39.0004
  20640206.4454     -17545.70349    -12688.63048                  20640201.1134
        53.0004         43.7504
 04  7  7 16 53 39.9990000  0  8G 3G 9G14G15G18G19G21G22
  21892431.4144     -74709.24649    -53445.02247                  21892428.7244
        47.5004         35.0004
  23078014.0974    -109402.13349    -79813.98847                  23078012.8954
        41.5004         26.7504
  21296515.8294    -290278.68049   -217675.41148                  21296513.1674
        50.7504         40.2504
  20093506.4194    -142232.30949   -101450.30548                  20093504.0084
        52.0004         42.5004
  21251750.1284     124692.27749     93350.81947                  21251746.1024
        50.5004         38.7504
  24024632.7984    -296941.80749   -216365.67146                  24024631.5724
        38.5004         22.7504
  21102061.7754     142510.29749    101266.94347                  21102058.0704
        50.5004         38.5004
  20639793.9414     -19714.89149    -14378.91848                  20639788.9814
        53.7504         43.7504
 04  7  7 16 53 49.9990000  0  8G 3G 9G14G15G18G19G21G22
  21891016.1604     -82143.54349    -59237.96547                  21891014.1174
        47.7504         36.0004
  23075884.3084    -120587.86749    -88530.12847                  23075884.2054
        41.5004         27.7504
  21291055.1964    -318974.38349   -240035.68848                  21291052.7924
        51.0004         40.2504
  20090792.6954    -156493.44949   -112562.87448                  20090790.2284
        52.0004         43.5004
  21254039.1544     136723.88349    102726.09848                  21254036.2134
        49.5004         39.5004
  24018797.4184    -327607.09449   -240260.68546                  24018795.8064
        38.5004         24.7504
  21104740.2004     156585.19949    112234.40748                  21104736.6274
        51.0004         39.5004
  20639381.1184     -21883.76649    -16068.93848                  20639376.0484
        53.5004         43.7504
 04  7  7 16 53 59.9990000  0  8G 3G 9G14G15G18G19G21G22
  21889609.0524     -89537.56249    -64999.54747                  21889607.0604
        46.7504         36.0004
  23073762.9544    -131735.59849    -97216.69247                  23073762.6814
        41.0004         27.0004
  21285599.1474    -347645.20749   -262376.58348                  21285596.9034
        50.5004         40.7504
  20088082.0094    -170737.84449   -123662.40248                  20088079.7434
        52.0004         43.5004
  21256327.6804     148749.60249    112096.77947                  21256324.2854
        49.5004         39.0004
  24012965.3294    -358255.77349   -264142.74746                  24012963.3444
        39.5004         22.2504
  21107422.4564     170680.16449    123217.48247                  21107418.8134
        51.0004         39.0004
  20638968.6954     -24050.30149    -17757.14848                  20638963.5004
        54.0004         43.7504
 04  7  7 16 54  9.9990000  0  8G 3G 9G14G15G18G19G21G22
  21888209.4274     -96893.59849    -70731.52847                  21888207.1954
        47.5004         37.2504
  23071649.0974    -142847.55149   -105875.35847                  23071648.6094
        41.2504         27.5004
  21280147.9384    -376293.36749   -284699.81948                  21280145.2604
        50.0004         40.7504
  20085374.1944    -184967.71949   -134750.62048                  20085371.7924
        52.0004         43.7504
  21258614.7714     160767.06349    121461.01448                  21258611.3764
        48.7504         39.5004
  24007136.1264    -388890.18749   -288013.73946                  24007134.2234
        39.2504         24.5004
  21110107.9314     184792.80549    134214.32948                  21110104.2964
        51.5004         40.0004
  20638556.2884     -26216.78949    -19445.32948                  20638551.5144
        54.2504         44.2504
 04  7  7 16 54 19.9990000  0  8G 3G 9G14G15G18G19G21G22
  21886817.0634    -104210.20749    -76432.77547                  21886814.9394
        48.2504         36.0004
  23069541.7624    -153922.24649   -114505.00047                  23069540.9654
        41.7504         26.7504
  21274700.7124    -404917.42249   -307004.27348                  21274698.1294
        49.5004         40.0004
  20082669.1354    -199181.58649   -145826.34648                  20082666.9444
        52.2504         43.2504
  21260900.1484     172777.59049    130819.86747                  21260897.2354
        48.7504         38.2504
  24001309.4214    -419508.81249   -311872.35746                  24001306.7314
        40.5004         22.5004
  21112797.0704     198924.46149    145226.00347                  21112793.5904
        51.0004         38.7504
  20638144.5174     -28381.85949    -21132.39248                  20638139.3024
        53.7504         44.2504
 04  7  7 16 54 29.9990000  0  8G 3G 9G14G15G18G19G21G22
  21885432.5534    -111489.02349    -82104.60447                  21885430.2994
        48.5004         36.5004
  23067440.2694    -164961.23449   -123106.81147                  23067440.6234
        41.5004         27.0004
  21269257.8394    -433518.93049   -329291.16548                  21269254.7704
        50.2504         39.7504
  20079967.5354    -213381.01649   -156890.84148                  20079965.0924
        52.5004         43.5004
  21263183.7874     184779.60549    140172.06747                  21263180.3374
        48.7504         39.0004
  23995486.0564    -450113.23449   -335719.96946                  23995482.6094
        41.0004         23.0004
  21115489.4684     213073.53549    156251.22947                  21115485.7624
        50.7504         38.5004
  20637732.5804     -30547.10549    -22819.60848                  20637727.3094
        53.0004         44.0004
 04  7  7 16 54 39.9990000  0  8G 3G 9G14G15G18G19G21G22
  21884055.0424    -118725.27749    -87743.24747                  21884052.8744
        48.2504         35.7504
  23065347.7904    -175959.61749   -131676.98047                  23065347.4224
        42.0004         27.5004
  21263820.7964    -462092.97349   -351556.64448                  21263817.8354
        49.7504         39.5004
  20077268.9504    -227561.14849   -167940.29148                  20077266.4404
        52.5004         43.2504
  21265467.6294     196777.88349    149521.36247                  21265464.0264
        48.2504         38.7504
  23989665.9974    -480698.53549   -359552.69746                  23989662.7944
        41.0004         24.2504
  21118185.8544     227244.93049    167293.86647                  21118182.8834
        51.2504         38.0004
  20637321.1264     -32707.85249    -24503.30748                  20637316.5644
        53.5004         43.5004
 04  7  7 16 54 49.9990000  0  8G 3G 9G14G15G18G19G21G22
  21882685.3174    -125922.89149    -93351.79047                  21882683.0224
        48.5004         35.2504
  23063261.8494    -186921.34449   -140218.59347                  23063261.4054
        41.7504         28.0004
  21258388.0524    -490643.42249   -373803.75248                  21258384.5704
        49.7504         39.7504
  20074573.4994    -241725.87949   -178977.76648                  20074571.1314
        51.7504         42.5004
  21267748.9714     208768.47349    158864.65047                  21267745.8684
        48.0004         38.2504
  23983848.3794    -511268.53549   -383373.43946                  23983845.0184
        41.7504         24.0004
  21120886.5094     241434.58249    178350.70447                  21120882.9754
        51.2504         37.7504
  20636910.3614     -34868.07449    -26186.61548                  20636905.4634
        53.0004         43.2504
 04  7  7 16 54 59.9990000  0  8G 3G 9G14G15G18G19G21G22
  21881323.0194    -133083.20749    -98931.23347                  21881320.8294
        49.2504         36.0004
  23061183.1384    -197847.64849   -148732.59647                  23061182.3934
        42.5004         28.2504
  21252959.1924    -519171.62549   -396033.49148                  21252956.2054
        50.0004         40.5004
  20071880.9764    -255876.50049   -190004.20148                  20071878.6514
        52.5004         43.7504
  21270029.1084     220749.91449    168200.85347                  21270026.1734
        47.7504         39.0004
  23978033.4374    -541824.52049   -407183.31747                  23978030.4124
        41.2504         26.5004
  21123590.0574     255641.11349    189420.73247                  21123586.6984
        50.7504         38.2504
  20636498.8114     -37029.10249    -27870.52148                  20636494.1734
        53.2504         43.7504
 04  7  7 16 55  9.9990000  0  8G 3G 9G14G15G18G19G21G22
  21879967.1544    -140207.02349   -104482.27347                  21879964.6444
        48.7504         36.0004
  23059110.4454    -208739.27349   -157219.59547                  23059109.5814
        43.0004         28.7504
  21247534.4924    -547678.28949   -418246.47348                  21247531.2844
        49.7504         40.2504
  20069190.3944    -270013.75049   -201020.24348                  20069188.2194
        52.0004         43.7504
  21272307.3434     232721.35949    177529.22947                  21272304.3274
        47.5004         39.0004
  23972221.3184    -572367.29349   -430982.84847                  23972218.8294
        40.5004         27.7504
  21126296.6274     269863.78149    200503.30947                  21126292.7524
        51.2504         39.0004
  20636087.2344     -39191.85249    -29555.79348                  20636082.9464
        53.0004         43.7504
 04  7  7 16 55 19.9990000  0  8G 3G 9G14G15G18G19G21G22
  21878618.3834    -147295.41849   -110005.70347                  21878616.1844
        49.2504         37.0004
  23057044.5214    -219597.28549   -165680.37347                  23057043.5944
        43.2504         29.7504
  21242113.8454    -576164.41849   -440443.45348                  21242110.4834
        48.7504         41.2504
  20066502.5554    -284138.62149   -212026.64748                  20066500.5334
        52.0004         44.5004
  21274583.3784     244681.70749    186848.96247                  21274580.2524
        46.7504         39.2504
  23966411.7614    -602897.71949   -454772.76347                  23966409.2324
        41.5004         27.7504
  21129005.8764     284101.51249    211597.62448                  21129002.2934
        51.0004         39.5004
  20635675.6344     -41357.40649    -31243.24748                  20635670.2704
        53.5004         44.0004
 04  7  7 16 55 29.9990000  0  8G 3G 9G14G15G18G19G21G22
  21877276.9664    -154345.00449   -115498.88047                  21877275.0804
        49.0004         36.7504
  23054986.1724    -230418.13749   -174112.22847                  23054984.5274
        43.5004         28.5004
  21236697.3154    -604626.58249   -462621.75048                  21236694.6664
        49.2504         40.5004
  20063817.8964    -298247.64549   -223020.69048                  20063815.5924
        52.2504         44.0004
  21276857.7904     256634.30149    196162.67047                  21276854.4114
        47.0004         38.7504
  23960605.2334    -633412.35949   -478550.38647                  23960602.8734
        41.5004         28.2504
  21131719.0554     298357.78949    222706.40247                  21131714.9114
        51.7504         39.2504
  20635263.4584     -43522.44949    -32930.29048                  20635258.4114
        53.5004         44.0004
 04  7  7 16 55 39.9990000  0  8G 3G 9G14G15G18G19G21G22
  21875942.3154    -161359.00049   -120964.33047                  21875939.8944
        49.0004         36.0004
  23052932.0464    -241205.02749   -182517.57747                  23052931.5174
        44.0004         29.0004
  21231285.1754    -633067.96949   -484783.86748                  21231282.1624
        49.0004         40.2504
  20061135.4114    -312343.95749   -234004.82748                  20061133.2084
        52.0004         44.0004
  21279130.2554     268575.94549    205467.84247                  21279127.0984
        46.5004         39.2504
  23954801.2254    -663914.39549   -502318.18747                  23954799.0974
        42.0004         27.5004
  21134434.5544     312629.25049    233827.00847                  21134430.8594
        51.2504         39.2504
  20634850.7694     -45690.15649    -34619.42048                  20634846.1204
        54.0004         43.7504
 04  7  7 16 55 49.9990000  0  8G 3G 9G14G15G18G19G21G22
  21874614.8894    -168334.38749   -126399.69947                  21874612.6134
        48.2504         36.0004
  23050887.0844    -251954.86349   -190894.08447                  23050885.9834
        44.2504         29.7504
  21225877.4784    -661485.43449   -506927.33548                  21225874.8474
        49.0004         40.5004
  20058456.1084    -326424.48449   -244976.66348                  20058453.8144
        51.7504         44.5004
  21281400.9564     280509.62949    214766.80347                  21281397.7114
        46.7504         39.0004
  23948999.4974    -694400.66449   -526073.69147                  23948997.5514
        42.5004         28.7504
  21137153.8184     326918.96149    244961.82748                  21137149.8604
        51.5004         39.5004
  20634438.3984     -47857.50849    -36308.25748                  20634433.6414
        53.5004         43.7504
 04  7  7 16 55 59.9990000  0  8G 3G 9G14G15G18G19G21G22
  21873294.5124    -175272.92649   -131806.37347                  21873292.3624
        49.2504         35.0004
  23048848.3744    -262669.32449   -199243.02047                  23048847.1174
        44.5004         29.2504
  21220474.3604    -689880.61749   -529053.45548                  21220471.1194
        49.0004         39.5004
  20055779.4674    -340490.86749   -255937.49248                  20055777.3864
        52.5004         43.2504
  21283669.9834     292433.63749    224058.21447                  21283666.9244
        46.5004         38.0004
  23943200.9414    -724872.83249   -549818.25547                  23943199.0324
        43.7504         28.5004
  21139876.0984     341225.16449    256109.50847                  21139872.5544
        51.0004         38.5004
  20634025.7374     -50026.31649    -37998.24748                  20634021.3114
        53.0004         42.2504
 04  7  7 16 56  9.9990000  0  8G 3G 9G14G15G18G19G21G22
  21871980.8634    -182177.57049   -137186.59147                  21871978.5914
        48.7504         36.2504
  23046815.9464    -273351.35549   -207566.66447                  23046814.7724
        44.5004         30.0004
  21215074.3384    -718256.52749   -551164.53948                  21215071.4704
        50.0004         40.5004
  20053104.6704    -354546.07849   -266889.58548                  20053102.4454
        52.7504         44.7504
  21285936.6404     304344.78149    233339.63347                  21285933.6484
        47.2504         39.0004
  23937404.6994    -755333.74649   -573553.99447                  23937402.1624
        43.0004         28.5004
  21142601.1334     355544.84049    267267.69648                  21142597.5074
        51.0004         40.0004
  20633612.5434     -52199.62949    -39691.73748                  20633607.0474
        53.2504         43.2504
 04  7  7 16 56 19.9990000  0  8G 3G 9G14G15G18G19G21G22
  21870673.1244    -189047.96949   -142540.16147                  21870671.0224
        48.7504         36.2504
  23044788.7234    -284000.50849   -215864.72047                  23044787.7284
        45.0004         30.2504
  21209678.5984    -746612.73049   -573260.27548                  21209675.9204
        50.5004         40.0004
  20050432.5254    -368589.67249   -277832.66148                  20050430.0174
        53.5004         44.7504
  21288200.8114     316243.44949    242611.31347                  21288197.9684
        48.0004         39.0004
  23931610.6274    -785782.96949   -597280.68347                  23931608.2294
        43.7504         28.5004
  21145328.6054     369878.46149    278436.73648                  21145325.0714
        51.0004         39.5004
  20633197.7164     -54377.10249    -41388.46148                  20633192.4774
        53.7504         43.2504
 04  7  7 16 56 29.9990000  0  8G 3G 9G14G15G18G19G21G22
  21869372.6524    -195882.53949   -147865.80347                  21869370.1054
        49.2504         36.5004
  23042768.9414    -294615.10549   -224135.83147                  23042768.3834
        45.0004         30.5004
  21204286.3844    -774947.53549   -595339.34348                  21204283.7294
        50.2504         40.7504
  20047762.3784    -382620.01249   -288765.38548                  20047760.2434
        53.7504         45.2504
  21290462.5994     328131.29749    251874.55648                  21290460.1034
        48.0004         39.5004
  23925818.5534    -816218.86749   -620996.97047                  23925815.9864
        44.0004         29.2504
  21148059.2564     384227.53949    289617.82348                  21148055.5444
        51.0004         40.2504
  20632782.8754     -56557.16849    -43087.21948                  20632777.9184
        54.5004         43.5004
 04  7  7 16 56 39.9990000  0  8G 3G 9G14G15G18G19G21G22
  21868078.2664    -202684.88349   -153166.32947                  21868075.6984
        49.0004         36.2504
  23040755.2754    -305198.66049   -232382.77647                  23040754.2584
        45.0004         30.5004
  21198898.0114    -803264.46149   -617404.47448                  21198895.1694
        50.7504         40.5004
  20045094.3604    -396640.59049   -299690.51248                  20045092.1054
        53.5004         45.2504
  21292722.5144     340004.65649    261126.52047                  21292719.2514
        46.7504         39.0004
  23920028.7754    -846644.91849   -644705.53947                  23920026.4254
        44.5004         30.0004
  21150792.0324     398588.52049    300808.19948                  21150788.7024
        51.7504         39.7504
  20632366.8594     -58743.48449    -44790.83448                  20632361.8304
        53.7504         43.0004
 04  7  7 16 56 49.9990000  0  8G 3G 9G14G15G18G19G21G22
  21866791.1434    -209449.59049   -158437.51847                  21866789.0374
        48.7504         36.7504
  23038747.9304    -315745.78149   -240601.28647                  23038747.3684
        45.2504         31.2504
  21193513.7464    -831558.10549   -639451.45248                  21193510.6854
        50.2504         40.5004
  20042429.1904    -410645.95349   -310603.78648                  20042426.8184
        53.5004         45.2504
  21294979.7994     351868.79749    270371.28847                  21294976.5994
        47.7504         38.2504
  23914241.8934    -877055.64549   -668402.23547                  23914238.9824
        44.2504         28.2504
  21153528.1444     412966.71949    312011.97948                  21153524.6274
        50.5004         39.5004
  20631950.5224     -60930.67249    -46495.13248                  20631944.9434
        53.5004         43.0004
 04  7  7 16 56 59.9990000  0  8G 3G 9G14G15G18G19G21G22
  21865510.5834    -216178.80149   -163681.06947                  21865508.0414
        49.0004         35.7504
  23036748.0634    -326258.48449   -248793.01747                  23036747.2464
        46.0004         31.0004
  21188133.9584    -859830.53149   -661481.91648                  21188130.5914
        50.7504         40.0004
  20039766.9004    -424638.18449   -321506.81848                  20039764.1334
        53.5004         45.2504
  21297235.6824     363721.58649    279607.20947                  21297232.4594
        48.5004         38.7504
  23908457.0164    -907453.13349   -692088.60047                  23908454.6104
        43.0004         28.5004
  21156266.9224     427359.93849    323227.46648                  21156263.4804
        50.7504         39.7504
  20631533.9994     -63120.91449    -48201.81148                  20631529.0984
        53.5004         43.0004
 04  7  7 16 57  9.9990000  0  8G 3G 9G14G15G18G19G21G22
  21864236.7054    -222870.56249   -168895.43147                  21864234.7444
        47.7504         35.0004
  23034753.8274    -336734.80549   -256956.38147                  23034752.8704
        46.0004         30.0004
  21182758.1904    -888079.63749   -683494.19748                  21182755.1924
        51.5004         40.0004
  20037107.1464    -438615.25049   -332398.04748                  20037104.4094
        53.5004         44.5004
  21299489.6104     375565.00049    288835.82647                  21299486.4194
        49.2504         38.0004
  23902675.9784    -937835.34449   -715763.01847                  23902672.8874
        43.7504         26.7504
  21159009.1244     441770.21549    334456.24647                  21159005.5304
        51.0004         39.0004
  20631116.7884     -65312.31249    -49909.39748                  20631111.6554
        53.2504         42.5004
 04  7  7 16 57 19.9990000  0  8G 3G 9G14G15G18G19G21G22
  21862970.1064    -229527.02049   -174082.28247                  21862968.4624
        48.7504         36.2504
  23032767.2654    -347176.73049   -265092.96047                  23032766.5724
        46.0004         31.0004
  21177386.7884    -916307.57449   -705489.98548                  21177384.1224
        51.7504         41.0004
  20034449.9584    -452579.25049   -343279.07848                  20034447.3624
        53.2504         45.0004
  21301741.1554     387396.90649    298055.49847                  21301737.6934
        49.7504         39.0004
  23896896.2584    -968204.21549   -739427.10647                  23896894.2554
        44.0004         27.7504
  21161754.1094     456195.39849    345696.64048                  21161750.8754
        50.7504         40.2504
  20630699.2954     -67507.04749    -51619.57448                  20630693.7824
        52.5004         43.0004
 04  7  7 16 57 29.9990000  0  8G 3G 9G14G15G18G19G21G22
  21861710.6114    -236148.67249   -179242.02347                  21861708.8004
        49.0004         36.2504
  23030786.7164    -357584.81249   -273203.17447                  23030785.9634
        46.2504         30.7504
  21172018.9214    -944514.84449   -727469.67048                  21172016.4304
        51.5004         41.0004
  20031795.1954    -466530.63349   -354150.29248                  20031792.1954
        53.2504         45.0004
  21303990.0394     399216.63349    307265.65047                  21303987.3144
        50.0004         38.5004
  23891119.8554    -998560.33649   -763081.22947                  23891117.1324
        44.5004         28.5004
  21164502.0654     470634.88349    356948.17748                  21164498.7384
        50.7504         39.7504
  20630280.7234     -69705.67649    -53332.79648                  20630275.5354
        51.7504         43.2504
 04  7  7 16 57 39.9990000  0  8G 3G 9G14G15G18G19G21G22
  21860456.7564    -242734.92249   -184374.16647                  21860454.6154
        48.5004         36.5004
  23028812.4504    -367958.21149   -281286.34647                  23028811.8724
        46.0004         29.5004
  21166655.3954    -972700.66049   -749432.64148                  21166652.7304
        51.2504         41.0004
  20029142.7194    -480468.62149   -365011.06248                  20029140.1604
        53.2504         45.5004
  21306237.2244     411024.91449    316466.90247                  21306233.7914
        49.5004         38.7504
  23885346.0274   -1028902.87949   -786724.76047                  23885343.2854
        44.0004         28.0004
  21167252.3794     485089.46149    368211.47648                  21167248.8824
        50.7504         39.5004
  20629861.7244     -71907.52049    -55048.51848                  20629856.4554
        52.0004         43.5004
 04  7  7 16 57 49.9990000  0  8G 3G 9G14G15G18G19G21G22
  21859211.3574    -249280.37149   -189474.50247                  21859209.4944
        47.7504         36.2504
  23026846.0004    -378291.59049   -289338.29147                  23026845.5884
        46.0004         29.7504
  21161296.8634   -1000859.60249   -771374.66048                  21161293.7514
        51.5004         41.0004
  20026494.1264    -494387.87149   -375857.23448                  20026491.0664
        53.5004         45.0004
  21308483.4034     422827.07849    325663.37547                  21308479.8954
        49.2504         39.0004
  23879575.5364   -1059226.45749   -810353.51547                  23879572.2714
        44.5004         28.5004
  21170007.1244     499564.41049    379490.65248                  21170003.6864
        50.5004         39.7504
  20629442.9764     -74107.31649    -56762.63548                  20629437.7324
        52.7504         43.2504
 04  7  7 16 57 59.9990000  0  8G 3G 9G14G15G18G19G21G22
  21857971.7874    -255792.81649   -194549.13347                  21857969.8434
        48.2504         36.0004
  23024886.0424    -388592.77049   -297365.21547                  23024884.8394
        45.2504         29.7504
  21155941.9634   -1028999.46149   -793301.82548                  21155939.2374
        50.0004         40.7504
  20023847.3614    -508296.16449   -386694.86648                  20023844.3914
        53.7504         44.7504
  21310726.3374     434615.14549    334848.88647                  21310723.5214
        49.7504         38.5004
  23873807.5704   -1089538.73049   -833973.44947                  23873804.3764
        44.0004         29.0004
  21172764.2194     514051.91049    390779.60248                  21172760.7824
        50.2504         39.5004
  20629023.4444     -76312.91449    -58481.28948                  20629018.2534
        52.0004         42.7504
 04  7  7 16 58  9.9990000  0  8G 3G 9G14G15G18G19G21G22
  21856739.6914    -262269.74249   -199596.07747                  21856737.9934
        47.2504         36.2504
  23022932.4924    -398858.95349   -305364.83947                  23022930.8394
        46.0004         29.2504
  21150591.1264   -1057117.56649   -815212.02148                  21150588.3944
        50.0004         40.5004
  20021203.0824    -522190.79749   -397521.83948                  20021200.1364
        53.2504         44.5004
  21312966.8484     446391.68849    344025.39047                  21312964.5494
        49.5004         38.5004
  23868042.1584   -1119837.03549   -857582.54147                  23868038.9794
        44.2504         27.7504
  21175523.2344     528554.54749    402080.35448                  21175520.1384
        51.0004         39.5004
  20628602.8654     -78521.68449    -60202.40748                  20628597.9264
        52.0004         42.5004
 04  7  7 16 58 19.9990000  0  8G 3G 9G14G15G18G19G21G22
  21855514.2114    -268709.44549   -204614.04247                  21855512.4444
        48.5004         35.5004
  23020985.2694    -409088.43449   -313335.87147                  23020984.7634
        46.0004         28.5004
  21145245.0654   -1085212.18049   -837103.93248                  21145242.3384
        50.0004         40.0004
  20018562.0204    -536069.97749   -408336.79048                  20018559.1714
        54.5004         43.5004
  21315206.4594     458158.44149    353194.27747                  21315203.6894
        48.7504         39.0004
  23862279.1534   -1150119.59049   -881179.29747                  23862276.6304
        43.0004         26.7504
  21178286.6824     543074.01649    413394.21747                  21178282.9354
        51.5004         39.0004
  20628182.1364     -80731.97749    -61924.72248                  20628177.3604
        53.0004         42.7504
 04  7  7 16 58 29.9990000  0  8G 3G 9G14G15G18G19G21G22
  21854295.4434    -275113.28149   -209604.04647                  21854293.6784
        48.0004         36.0004
  23019045.7694    -419282.59849   -321279.36647                  23019045.2794
        46.0004         28.7504
  21139903.0714   -1113284.61349   -858978.54448                  21139900.6194
        50.0004         40.7504
  20015923.5834    -549935.04749   -419140.73048                  20015920.4404
        53.5004         43.5004
  21317443.4014     469914.01249    362354.46148                  21317440.7114
        48.7504         39.7504
  23856518.6734   -1180387.73049   -904764.87147                  23856516.5564
        42.5004         27.0004
  21181053.0974     557608.87949    424720.07548                  21181049.3364
        51.0004         40.0004
  20627761.4424     -82945.27349    -63649.36348                  20627756.6514
        52.2504         43.0004
 04  7  7 16 58 39.9990000  0  8G 3G 9G14G15G18G19G21G22
  21853083.9154    -281480.84849   -214565.79047                  21853081.9824
        48.2504         36.2504
  23017112.7754    -429440.84849   -329194.89847                  23017112.0874
        46.0004         28.5004
  21134565.3384   -1141334.36749   -880835.48448                  21134562.8884
        49.5004         41.0004
  20013287.7024    -563785.51649   -429933.30248                  20013285.0364
        53.5004         44.0004
  21319678.4624     481658.78549    371506.22047                  21319675.1604
        48.7504         38.7504
  23850762.2974   -1210640.89149   -928338.74847                  23850759.4174
        42.5004         26.0004
  21183821.5364     572159.51249    436058.22448                  21183817.8414
        51.5004         40.0004
  20627339.4674     -85161.16849    -65376.04448                  20627334.8704
        51.7504         43.2504
 04  7  7 16 58 49.9990000  0  8G 3G 9G14G15G18G19G21G22
  21851877.9294    -287817.46549   -219503.42047                  21851876.5034
        48.5004         36.5004
  23015185.0914    -439568.52349   -337086.59347                  23015184.6994
        46.0004         28.5004
  21129230.8514   -1169366.76249   -902678.90948                  21129228.3054
        49.5004         41.0004
  20010653.9984    -577626.66049   -440718.61548                  20010650.8504
        53.7504         43.7504
  21321910.3604     493387.41849    380645.39747                  21321906.9664
        49.0004         39.0004
  23845006.9154   -1240884.36749   -951905.05447                  23845004.6774
        43.5004         28.5004
  21186592.3874     586720.70349    447404.59948                  21186588.8114
        50.7504         40.0004
  20626916.4514     -87385.04749    -67108.95048                  20626911.6934
        52.0004         44.0004
 04  7  7 16 58 59.9990000  0  8G 3G 9G14G15G18G19G21G22
  21850678.6694    -294118.03549   -224412.95347                  21850677.3614
        48.2504         36.7504
  23013265.3064    -449660.44949   -344950.44647                  23013264.3694
        45.5004         28.5004
  21123901.1114   -1197376.55549   -924504.71548                  21123898.1034
        49.0004         41.7504
  20008022.8894    -591453.34049   -451492.64948                  20008020.1164
        52.7504         43.2504
  21324139.9914     505105.00049    389775.97447                  21324137.1414
        47.5004         38.2504
  23839254.9864   -1271112.94149   -975459.79947                  23839252.2734
        43.2504         27.0004
  21189366.0814     601297.54349    458763.16248                  21189362.6584
        51.0004         39.7504
  20626492.8204     -89611.81249    -68844.09448                  20626487.5764
        52.0004         44.5004
 04  7  7 16 59  9.9990000  0  8G 3G 9G14G15G18G19G21G22
  21849486.9664    -300380.11749   -229292.49347                  21849485.3774
        48.7504         36.2504
  23011352.0934    -459714.11749   -352784.47247                  23011350.9334
        45.5004         27.7504
  21118575.7134   -1225361.29749   -946311.00148                  21118573.4194
        50.0004         41.5004
  20005394.9554    -605262.98449   -462253.40848                  20005391.8674
        52.7504         43.2504
  21326368.0774     516813.89549    398899.77147                  21326365.3844
        48.5004         38.5004
  23833506.2574   -1301324.09849   -999000.95747                  23833503.3134
        43.7504         28.2504
  21192143.6774     615892.53549    470135.86648                  21192140.2514
        51.0004         39.7504
  20626068.6864     -91839.03949    -70579.59148                  20626064.0194
        52.0004         43.5004
 04  7  7 16 59 19.9990000  0  8G 3G 9G14G15G18G19G21G22
  21848301.5194    -306608.38749   -234145.68547                  21848300.1884
        48.0004         36.2504
  23009444.7694    -469734.20749   -360592.32347                  23009444.2944
        46.0004         26.5004
  21113254.1924   -1253325.64149   -968101.39048                  21113251.6684
        49.7504         41.2504
  20002769.4014    -619060.25449   -473004.51648                  20002766.1354
        52.0004         42.7504
  21328593.5934     528509.41449    408013.16347                  21328590.5424
        48.0004         38.2504
  23827759.2854   -1331522.44949  -1022532.11047                  23827756.3054
        43.5004         28.7504
  21194923.7464     630500.87549    481518.98247                  21194919.8464
        51.0004         39.2504
  20625644.3044     -94071.46149    -72319.14748                  20625639.2534
        52.5004         43.7504
 04  7  7 16 59 29.9990000  0  8G 3G 9G14G15G18G19G21G22
  21847123.7744    -312800.30949   -238970.55547                  21847122.3474
        48.7504         37.0004
  23007545.2644    -479718.01249   -368371.92647                  23007544.4114
        45.0004         26.2504
  21107936.9404   -1281266.86349   -989873.75248                  21107934.2914
        48.7504         41.0004
  20000146.5044    -632842.46549   -483743.89948                  20000143.6154
        52.5004         42.5004
  21330817.4844     540194.11349    417118.11747                  21330813.8744
        47.2504         37.5004
  23822015.6634   -1361705.18749  -1046051.12747                  23822012.9534
        43.0004         27.2504
  21197706.7084     645125.26249    492914.60147                  21197702.6264
        50.7504         39.0004
  20625218.8034     -96306.48849    -74060.73048                  20625213.8474
        53.0004         43.5004
 04  7  7 16 59 39.9990000  0  8G 3G 9G14G15G18G19G21G22
  21845952.0004    -318956.28549   -243767.42947                  21845951.4284
        48.2504         36.7504
  23005652.3744    -489665.93049   -376123.53247                  23005651.3764
        45.0004         26.7504
  21102624.3164   -1309185.37949  -1011628.43448                  21102621.3944
        50.2504         40.7504
  19997526.6894    -646610.00449   -494471.85748                  19997523.8314
        52.5004         42.7504
  21333038.8934     551867.54349    426214.27247                  21333035.1394
        48.5004         38.2504
  23816275.1284   -1391872.82449  -1069558.34247                  23816272.1724
        43.0004         27.5004
  21200492.6064     659765.16849    504322.30247                  21200488.6424
        51.2504         39.0004
  20624792.6464     -98544.56249    -75804.68648                  20624787.4474
        54.0004         43.5004
 04  7  7 16 59 49.9990000  0  8G 3G 9G14G15G18G19G21G22
  21844788.0494    -325073.96149   -248534.44647                  21844787.1164
        48.2504         37.2504
  23003767.2744    -499575.46949   -383845.24447                  23003765.8034
        45.2504         26.7504
  21097316.2424   -1337078.67249  -1033363.45748                  21097313.2344
        48.2504         41.5004
  19994910.1864    -660360.41049   -505186.45348                  19994907.3674
        52.7504         43.2504
  21335258.6584     563532.10249    435303.52947                  21335254.7814
        46.7504         39.0004
  23810537.7624   -1422022.78149  -1093051.80347                  23810534.4124
        43.0004         28.7504
  21203281.7094     674422.97349    515743.95447                  21203277.7934
        50.5004         38.7504
  20624366.9154    -100783.34849    -77549.19148                  20624361.5204
        53.5004         44.2504
 04  7  7 16 59 59.9990000  0  8G 3G 9G14G15G18G19G21G22
  21843631.2024    -331153.90249   -253272.05547                  21843629.9544
        48.5004         37.0004
  23001887.6434    -509447.10249   -391537.43447                  23001887.4474
        45.2504         28.0004
  21092013.1274   -1364947.23849  -1055079.20548                  21092010.4084
        49.5004         41.2504
  19992296.7714    -674094.15649   -515888.05648                  19992293.6934
        52.5004         42.7504
  21337476.3874     575187.23449    444385.44847                  21337472.5284
        49.5004         39.0004
  23804803.6834   -1452155.55949  -1116531.88147                  23804799.9004
        43.5004         29.0004
  21206074.2354     689098.21549    527179.20947                  21206070.5684
        51.2504         38.5004
  20623940.6214    -103023.38349    -79294.66148                  20623935.3294
        53.2504         44.0004
 04  7  7 17  0  9.9990000  0  8G 3G 9G14G15G18G19G21G22
  21842481.3244    -337196.09849   -257980.26147                  21842480.1224
        48.2504         36.7504
  23000017.2704    -519280.85949   -399200.10547                  23000015.8704
        45.5004         27.7504
  21086714.6434   -1392791.16049  -1076775.77848                  21086712.0354
        50.0004         41.7504
  19989686.6944    -687811.18049   -526576.66248                  19989683.8314
        53.5004         43.5004
  21339692.4504     586832.77049    453459.87047                  21339688.9894
        49.5004         39.2504
  23799072.9394   -1482271.09449  -1139998.50347                  23799069.0854
        43.0004         28.5004
  21208870.3554     703790.71549    538627.88747                  21208866.5904
        51.0004         39.0004
  20623514.3024    -105264.89849    -81041.31348                  20623508.9044
        54.0004         44.5004
 04  7  7 17  0 19.9990000  0  8G 3G 9G14G15G18G19G21G22
  21841339.0344    -343200.88749   -262659.33747                  21841337.5674
        48.2504         37.5004
  22998152.4824    -529077.00849   -406833.46347                  22998152.0604
        44.2504         27.5004
  21081420.5604   -1420610.62949  -1098453.27448                  21081417.5934
        49.7504         41.0004
  19987079.2144    -701511.75849   -537252.43248                  19987076.1954
        53.2504         43.0004
  21341906.8144     598468.41849    462526.59347                  21341903.4404
        50.0004         39.0004
  23793345.3174   -1512369.60249  -1163451.87247                  23793341.5854
        43.0004         27.2504
  21211669.2274     718500.19549    550089.79447                  21211665.7444
        50.0004         38.5004
  20623087.2194    -107508.14549    -82789.29448                  20623081.5944
        52.7504         43.5004
 04  7  7 17  0 29.9990000  0  8G 3G 9G14G15G18G19G21G22
  21840202.9814    -349168.84049   -267309.68147                  21840201.6254
        48.5004         37.2504
  22996295.0624    -538835.99249   -414437.84347                  22996294.5064
        44.2504         27.5004
  21076131.2454   -1448406.13349  -1120112.09848                  21076128.6984
        48.5004         41.0004
  19984475.4114    -715196.35249   -547915.73948                  19984472.1734
        54.0004         43.5004
  21344118.8524     610093.50049    471585.10747                  21344115.4894
        48.5004         38.2504
  23787620.8294   -1542451.60949  -1186892.38847                  23787617.6834
        42.5004         28.7504
  21214471.6454     733226.09849    561564.52347                  21214467.9944
        50.5004         38.5004
  20622659.8074    -109753.68049    -84539.04748                  20622654.4604
        53.0004         43.5004
 04  7  7 17  0 39.9990000  0  8G 3G 9G14G15G18G19G21G22
  21839074.1174    -355101.91449   -271932.86047                  21839072.8384
        48.2504         37.0004
  22994444.9744    -548559.75049   -422014.81347                  22994443.8804
        45.2504         28.0004
  21070846.3214   -1476179.57849  -1141753.74648                  21070843.2834
        49.0004         40.7504
  19981873.9364    -728866.89549   -558568.12148                  19981870.5174
        53.7504         43.7504
  21346328.5324     621706.09849    480633.87047                  21346325.0924
        49.2504         37.7504
  23781899.5604   -1572518.94549  -1210321.46947                  23781896.1474
        43.0004         28.2504
  21217276.7604     747966.44549    573050.47947                  21217272.7134
        50.2504         38.2504
  20622231.9364    -112003.53149    -86292.18348                  20622225.8684
        53.7504         43.0004
 04  7  7 17  0 49.9990000  0  8G 3G 9G14G15G18G19G21G22
  21837951.7004    -360997.70749   -276526.97647                  21837950.7034
        48.2504         36.7504
  22992602.1584    -558245.81649   -429562.39647                  22992601.0334
        45.5004         28.0004
  21065565.8974   -1503928.48849  -1163376.27248                  21065563.4314
        50.0004         41.0004
  19979275.7124    -742520.87149   -569207.57648                  19979272.2124
        53.0004         43.7504
  21348536.4104     633308.62949    489674.79047                  21348533.1714
        50.5004         38.2504
  23776181.2324   -1602569.09049  -1233737.13147                  23776178.1184
        42.2504         28.0004
  21220084.6094     762723.66849    584549.60747                  21220080.8934
        49.5004         38.0004
  20621803.2424    -114255.31649    -88046.81448                  20621797.8544
        54.0004         42.2504
 04  7  7 17  0 59.9990000  0  8G 3G 9G14G15G18G19G21G22
  21836837.6964    -366855.84049   -281091.76947                  21836836.6544
        48.7504         37.0004
  22990765.8324    -567893.69149   -437080.23247                  22990764.2484
        45.5004         27.7504
  21060290.3114   -1531652.46149  -1184979.36248                  21060287.4914
        50.0004         41.7504
  19976680.9684    -756157.86349   -579833.80848                  19976677.2484
        54.0004         43.7504
  21350742.5414     644901.39849    498708.11747                  21350739.4304
        50.5004         38.2504
  23770465.5164   -1632601.57849  -1257139.06247                  23770463.5204
        41.7504         29.7504
  21222896.2814     777498.12549    596062.16247                  21222892.9644
        50.5004         38.5004
  20621374.0954    -116508.68749    -89802.67948                  20621369.1564
        54.0004         42.2504
 04  7  7 17  1  9.9990000  0  8G 3G 9G14G15G18G19G21G22
  21835729.6684    -372676.84049   -285627.61747                  21835728.2624
        46.7504         37.0004
  22988937.4154    -577503.87949   -444568.67747                  22988936.3484
        45.5004         28.5004
  21055018.8114   -1559351.88749  -1206563.30948                  21055016.4594
        50.7504         41.5004
  19974088.8704    -769778.27349   -590447.10948                  19974085.6004
        54.0004         44.0004
  21352946.7724     656483.86749    507733.40847                  21352943.9684
        51.2504         38.5004
  23764753.7314   -1662616.84449  -1280527.58147                  23764752.1804
        41.5004         29.0004
  21225710.8374     792289.31349    607587.75247                  21225707.7204
        49.5004         38.2504
  20620945.0264    -118764.19149    -91560.20548                  20620940.1304
        53.2504         42.5004
 04  7  7 17  1 19.9990000  0  8G 3G 9G14G15G18G19G21G22
  21834629.2594    -378460.51249   -290134.37447                  21834627.9684
        48.2504         37.5004
  22987116.4314    -587076.01249   -452027.48047                  22987114.3924
        44.7504         29.0004
  21049752.9864   -1587026.37549  -1228127.84848                  21049750.3154
        51.0004         42.0004
  19971500.2184    -783381.79749   -601047.26248                  19971497.1384
        52.5004         44.7504
  21355148.8034     668056.39149    516750.94347                  21355145.3134
        50.7504         38.7504
  23759045.4904   -1692614.57849  -1303902.39647                  23759043.0844
        41.2504         30.0004
  21228528.7444     807097.46549    619126.55547                  21228525.4724
        49.2504         38.7504
  20620515.4484    -121021.57049    -93319.20848                  20620510.5574
        52.5004         42.5004
 04  7  7 17  1 29.9990000  0  8G 3G 9G14G15G18G19G21G22
  21833535.3194    -384209.34849   -294613.99647                  21833533.8854
        47.5004         37.0004
  22985300.8024    -596612.59449   -459458.60047                  22985299.8234
        45.5004         29.0004
  21044490.8954   -1614678.50449  -1249674.96348                  21044488.0864
        51.2504         42.0004
  19968914.2744    -796970.91849   -611636.18848                  19968910.9044
        53.5004         44.5004
  21357348.6194     679616.32449    525758.66447                  21357345.5824
        51.0004         38.7504
  23753340.0624   -1722597.14549  -1327265.41647                  23753338.4344
        42.5004         30.0004
  21231349.3954     821920.03149    630676.58747                  21231345.9354
        49.7504         38.5004
  20620085.0154    -123283.36749    -95081.64948                  20620079.7744
        52.5004         41.7504
 04  7  7 17  1 39.9990000  0  8G 3G 9G14G15G18G19G21G22
  21832448.0554    -389923.30549   -299066.42447                  21832446.7074
        46.5004         36.5004
  22983493.3034    -606113.59049   -466861.97047                  22983491.7754
        45.2504         29.0004
  21039233.1474   -1642308.25849  -1271204.63648                  21039230.7764
        51.5004         42.2504
  19966330.9554    -810545.59449   -622213.85748                  19966328.2014
        53.0004         44.5004
  21359546.0374     691163.58649    534756.52947                  21359542.8714
        51.5004         37.5004
  23747637.6224   -1752564.48849  -1350616.58647                  23747634.8224
        42.0004         29.5004
  21234172.7764     836757.11749    642237.93947                  21234169.6674
        48.5004         38.2504
  20619653.7914    -125549.66049    -96847.58048                  20619648.3094
        52.2504         42.0004
 04  7  7 17  1 49.9990000  0  8G 3G 9G14G15G18G19G21G22
  21831367.5914    -395599.59049   -303489.50347                  21831366.4134
        47.2504         37.2504
  22981692.9704    -615576.13749   -474235.40447                  22981691.1834
        45.0004         28.0004
  21033980.3254   -1669912.74249  -1292714.60948                  21033977.4024
        51.2504         42.0004
  19963751.1164    -824102.94149   -632778.02348                  19963747.5984
        53.5004         44.7504
  21361741.5744     702701.00449    543746.70547                  21361737.9244
        51.0004         37.7504
  23741938.6474   -1782513.69549  -1373953.61947                  23741935.6084
        42.5004         29.0004
  21236999.3324     851611.47349    653812.74847                  21236996.4294
        48.7504         38.2504
  20619222.3784    -127817.65649    -98614.85648                  20619217.1344
        52.2504         41.2504
 04  7  7 17  1 59.9990000  0  8G 3G 9G14G15G18G19G21G22
  21830294.7524    -401237.70749   -307882.86047                  21830293.8494
        48.2504         37.0004
  22979898.8224    -624999.60549   -481578.38647                  22979898.1684
        45.0004         27.7504
  21028732.4054   -1697491.31249  -1314204.40448                  21028729.6314
        52.5004         42.2504
  19961174.8944    -837642.30549   -643328.18548                  19961172.0004
        53.7504         44.5004
  21363935.4214     714229.06649    552729.59547                  21363931.7174
        51.7504         37.5004
  23736242.8144   -1812444.17249  -1397276.05147                  23736240.0574
        43.0004         28.5004
  21239829.7684     866483.64149    665401.43747                  21239826.8004
        49.5004         37.5004
  20618790.3564    -130086.80149   -100383.02048                  20618784.8984
        52.5004         41.7504
 04  7  7 17  2  9.9990000  0  8G 3G 9G14G15G18G19G21G22
  21829228.7614    -406838.64149   -312247.22347                  21829227.6964
        47.2504         36.7504
  22978113.5484    -634384.94549   -488891.62347                  22978111.9034
        43.2504         27.5004
  21023489.3314   -1725044.81249  -1335674.65448                  21023486.2574
        52.2504         42.5004
  19958601.5084    -851164.63349   -653865.06348                  19958598.3154
        53.7504         44.7504
  21366127.3584     725746.79749    561704.44847                  21366124.0254
        52.0004         38.0004
  23730550.6564   -1842356.74649  -1420584.54947                  23730547.1724
        43.0004         29.7504
  21242663.0694     881372.64849    677003.26047                  21242659.7814
        48.7504         38.0004
  20618358.4484    -132358.13349   -102152.89048                  20618352.7144
        52.2504         42.5004
 04  7  7 17  2 19.9990000  0  8G 3G 9G14G15G18G19G21G22
  21828169.3694    -412405.93749   -316585.37147                  21828168.5394
        46.5004         36.7504
  22976334.0174    -643735.53149   -496177.78747                  22976332.5694
        44.2504         28.7504
  21018249.8454   -1752576.73049  -1357128.07948                  21018247.2064
        51.5004         42.2504
  19956030.6204    -864673.35549   -664391.32048                  19956027.9154
        53.5004         45.0004
  21368316.3634     737250.71149    570668.54347                  21368313.0454
        52.5004         38.2504
  23724861.6534   -1872254.82849  -1443881.73747                  23724857.8484
        42.7504         29.0004
  21245498.3544     896274.94949    688615.44447                  21245495.6004
        48.7504         38.5004
  20617925.0174    -134635.19149   -103927.20448                  20617919.8184
        52.0004         42.2504
 04  7  7 17  2 29.9990000  0  8G 3G 9G14G15G18G19G21G22
  21827117.1274    -417937.27349   -320895.50047                  21827115.0354
        46.5004         37.0004
  22974561.7684    -653049.03949   -503435.09847                  22974560.2424
        43.7504         29.7504
  21013015.0184   -1780084.73449  -1378562.87548                  21013011.8834
        52.2504         43.0004
  19953463.0474    -878166.07449   -674905.13748                  19953460.1744
        53.5004         45.0004
  21370503.0654     748743.07049    579623.61047                  21370499.9534
        51.2504         38.5004
  23719174.9214   -1902136.07849  -1467165.82447                  23719171.3764
        43.0004         29.0004
  21248337.3204     911192.83249    700239.74747                  21248334.3674
        49.5004         39.0004
  20617490.9684    -136915.69549   -105704.23748                  20617485.5594
        52.2504         43.0004
 04  7  7 17  2 39.9990000  0  8G 3G 9G14G15G18G19G21G22
  21826071.1174    -423434.40249   -325178.98247                  21826069.3084
        48.0004         37.0004
  22972795.9444    -662327.13349   -510664.78747                  22972795.0734
        43.7504         28.5004
  21007784.5434   -1807570.55549  -1399980.39648                  21007782.1944
        51.7504         42.0004
  19950898.1564    -891644.49649   -685407.79748                  19950894.8524
        52.7504         44.7504
  21372687.4404     760222.07049    588568.27947                  21372684.4774
        51.5004         38.0004
  23713491.7054   -1932002.22749  -1490438.13747                  23713488.7244
        42.5004         29.0004
  21251178.9194     926124.53149    711874.82148                  21251176.0024
        48.7504         39.7504
  20617056.0484    -139201.44149   -107485.33448                  20617050.4684
        52.5004         42.5004
 04  7  7 17  2 49.9990000  0  8G 3G 9G14G15G18G19G21G22
  21825032.0144    -428894.02749   -329433.23447                  21825030.4414
        48.2504         37.5004
  22971038.1094    -671566.52749   -517864.31747                  22971036.8044
        43.0004         29.2504
  21002558.7494   -1835030.78549  -1421377.97248                  21002556.5864
        51.5004         42.2504
  19948336.6444    -905105.25449   -695896.70748                  19948333.6804
        53.0004         44.5004
  21374870.0274     771691.02049    597505.11447                  21374866.8794
        51.7504         37.7504
  23707812.5364   -1961849.85549  -1513696.00147                  23707809.0434
        43.2504         28.7504
  21254023.5044     941073.41449    723523.29347                  21254020.6804
        49.5004         39.2504
  20616620.8604    -141489.17649   -109267.98148                  20616615.2274
        52.7504         43.0004
 04  7  7 17  2 59.9990000  0  8G 3G 9G14G15G18G19G21G22
  21823999.9934    -434317.16849   -333659.06247                  21823998.5684
        46.7504         37.0004
  22969287.5034    -680768.18049   -525034.44647                  22969285.1434
        42.5004         28.0004
  20997338.2084   -1862466.41849  -1442756.37948                  20997335.8944
        51.0004         42.0004
  19945778.4224    -918549.29749   -706372.58448                  19945775.2664
        52.2504         44.5004
  21377050.3304     783148.85949    606433.30047                  21377046.9784
        51.5004         37.0004
  23702135.6084   -1991679.85249  -1536940.15247                  23702132.4824
        43.5004         28.5004
  21256871.2124     956038.35249    735184.27448                  21256868.6624
        48.0004         39.5004
  20616184.9094    -143779.96949   -111053.01948                  20616179.6024
        52.7504         43.5004
 04  7  7 17  3  9.9990000  0  8G 3G 9G14G15G18G19G21G22
  21822975.2324    -439704.37149   -337856.90447                  21822973.7884
        47.2504         36.7504
  22967543.3174    -689932.55549   -532175.52447                  22967541.7274
        43.7504         28.5004
  20992121.7484   -1889877.92249  -1464115.99948                  20992119.8204
        51.5004         41.7504
  19943223.2504    -931977.06249   -716835.78948                  19943220.3654
        52.5004         44.0004
  21379228.5854     794594.97349    615352.32747                  21379225.0154
        52.0004         36.5004
  23696461.8984   -2021492.64149  -1560170.88647                  23696459.5144
        43.5004         29.7504
  21259722.2744     971018.93049    746857.43147                  21259719.0554
        48.7504         39.0004
  20615748.1484    -146074.33649   -112840.84748                  20615742.8444
        53.5004         42.7504
 04  7  7 17  3 19.9990000  0  8G 3G 9G14G15G18G19G21G22
  21821956.8034    -445055.51649   -342026.62047                  21821955.4404
        47.5004         37.0004
  22965806.1564    -699059.46549   -539287.39247                  22965804.5234
        41.5004         26.7504
  20986910.2474   -1917265.06249  -1485456.60348                  20986908.2384
        51.0004         42.0004
  19940671.0484    -945388.40649   -727286.17948                  19940668.5194
        51.7504         44.5004
  21381404.6104     806029.49249    624262.33947                  21381401.6064
        51.0004         37.0004
  23690792.2314   -2051288.08249  -1583388.08747                  23690789.4584
        43.5004         29.0004
  21262575.8644     986015.17649    758542.82848                  21262572.8974
        48.7504         39.5004
  20615311.0364    -148372.22349   -114631.40148                  20615306.0674
        54.0004         44.0004
 04  7  7 17  3 29.9990000  0  8G 3G 9G14G15G18G19G21G22
  21820945.7434    -450368.66849   -346166.74047                  21820944.5194
        47.5004         37.2504
  22964077.5794    -708146.85949   -546368.46547                  22964075.4754
        40.5004         28.0004
  20981703.4554   -1944625.84849  -1506776.70048                  20981701.2884
        51.2504         42.0004
  19938122.2114    -958781.24249   -737722.15948                  19938119.8814
        52.5004         44.5004
  21383578.9384     817454.34449    633164.81547                  21383575.0524
        51.5004         37.2504
  23685126.6454   -2081064.14149  -1606590.19647                  23685123.8084
        44.5004         29.2504
  21265432.9924    1001029.07849    770241.94448                  21265429.7094
        49.0004         39.5004
  20614873.3894    -150671.60249   -116423.12748                  20614868.4294
        54.0004         43.7504
 04  7  7 17  3 39.9990000  0  8G 3G 9G14G15G18G19G21G22
  21819942.3114    -455643.71149   -350277.17647                  21819940.4624
        48.7504         37.7504
  22962355.5584    -717194.63349   -553418.71647                  22962354.0944
        42.7504         28.2504
  20976502.0554   -1971960.18049  -1528076.17348                  20976499.7894
        51.2504         42.2504
  19935577.3884    -972155.47749   -748143.65148                  19935574.0724
        52.7504         44.5004
  21385751.0304     828869.55149    642059.77147                  21385747.7954
        51.7504         38.0004
  23679463.2704   -2110820.58649  -1629777.02147                  23679460.5814
        44.0004         28.7504
  21268293.0444    1016060.64849    781954.83748                  21268290.4984
        49.0004         39.7504
  20614435.6264    -152972.50049   -118216.03648                  20614430.4404
        53.2504         44.5004
 04  7  7 17  3 49.9990000  0  8G 3G 9G14G15G18G19G21G22
  21818945.4244    -460880.30149   -354357.63347                  21818943.7984
        47.7504         37.5004
  22960641.4624    -726202.33249   -560437.67147                  22960639.4954
        42.5004         27.7504
  20971305.7264   -1999267.63749  -1549354.71248                  20971303.5384
        52.0004         41.5004
  19933035.7094    -985510.60249   -758550.23948                  19933033.2284
        52.0004         44.2504
  21387921.5944     840275.58249    650947.59547                  21387918.3954
        51.0004         36.5004
  23673804.8044   -2140556.96149  -1652948.19647                  23673802.5834
        43.7504         29.0004
  21271157.1154    1031110.25049    793681.80147                  21271154.0934
        48.5004         39.2504
  20613997.5414    -155274.51649   -120009.81448                  20613992.7284
        54.0004         43.7504
 04  7  7 17  3 59.9990000  0  8G 3G 9G14G15G18G19G21G22
  21817955.6664    -466080.28549   -358409.56847                  21817954.6414
        48.0004         37.7504
  22958934.8254    -735171.68049   -567426.78747                  22958932.9414
        41.5004         28.0004
  20966113.9154   -2026549.94549  -1570613.63448                  20966111.8954
        51.5004         41.7504
  19930497.8064    -998848.43749   -768943.35448                  19930495.1494
        52.0004         44.0004
  21390089.6824     851670.51649    659826.76147                  21390086.2584
        51.0004         37.0004
  23668149.7094   -2170274.98449  -1676105.05747                  23668147.1574
        44.0004         28.7504
  21274023.9904    1046176.15249    805421.44947                  21274020.7244
        49.0004         39.2504
  20613558.9174    -157579.57849   -121805.96948                  20613553.5694
        53.5004         43.7504
 04  7  7 17  4  9.9990000  0  8G 3G 9G14G15G18G19G21G22
  21816972.5104    -471247.73449   -362436.16547                  21816971.1164
        48.0004         38.0004
  22957234.3614    -744106.69149   -574389.11047                  22957232.5984
        44.0004         27.7504
  20960926.8304   -2053811.02049  -1591856.02848                  20960924.0994
        51.7504         42.0004
  19927962.2754   -1012172.86349   -779326.03648                  19927959.8894
        52.5004         44.0004
  21392255.0114     863050.36349    668694.16047                  21392251.2334
        51.5004         37.0004
  23662497.1034   -2199978.57049  -1699250.71047                  23662494.5774
        44.0004         28.2504
  21276893.1354    1061254.23049    817170.59247                  21276889.9634
        49.2504         39.0004
  20613119.0154    -159891.69949   -123607.62448                  20613113.7444
        54.2504         43.7504
 04  7  7 17  4 19.9990000  0  8G 3G 9G14G15G18G19G21G22
  21815996.6914    -476376.96949   -366432.98547                  21815995.2554
        48.0004         36.7504
  22955541.7054    -753001.66049   -581320.27847                  22955540.2004
        42.5004         28.0004
  20955744.2694   -2081045.19549  -1613077.45948                  20955742.1344
        51.7504         41.2504
  19925430.1654   -1025478.19149   -789693.84348                  19925427.8934
        52.0004         42.7504
  21394418.7304     874420.71549    677554.14947                  21394415.7234
        51.0004         36.2504
  23656849.1084   -2229662.05549  -1722380.67347                  23656845.7864
        43.7504         28.2504
  21279766.1144    1076350.16049    828933.62247                  21279762.8104
        49.0004         37.7504
  20612678.5454    -162205.20349   -125410.36748                  20612673.6974
        54.0004         42.7504
 04  7  7 17  4 29.9990000  0  8G 3G 9G14G15G18G19G21G22
  21815027.3864    -481469.76649   -370401.38847                  21815025.8234
        48.0004         37.5004
  22953856.3894    -761858.24649   -588221.51147                  22953854.2624
        42.5004         28.2504
  20950566.2944   -2108254.15249  -1634279.22348                  20950563.9714
        52.0004         42.2504
  19922901.9574   -1038766.11349   -800048.05248                  19922899.4394
        52.2504         43.7504
  21396580.4804     885779.73849    686405.35847                  21396577.4824
        51.5004         37.0004
  23651203.7374   -2259327.00449  -1745496.19947                  23651200.6294
        44.0004         28.0004
  21282641.8034    1091462.19549    840709.25047                  21282638.3514
        48.7504         38.7504
  20612237.8734    -164521.87549   -127215.55148                  20612232.7074
        53.7504         43.7504
 04  7  7 17  4 39.9990000  0  8G 3G 9G14G15G18G19G21G22
  21814065.3194    -486524.44149   -374340.09447                  21814064.0834
        48.0004         37.2504
  22952178.6844    -770674.77349   -595091.51247                  22952176.4444
        45.0004         27.0004
  20945394.0784   -2135436.13749  -1655459.98448                  20945391.3074
        51.5004         42.0004
  19920376.5984   -1052034.88749   -810387.36048                  19920374.2684
        52.2504         43.5004
  21398740.1954     897129.20749    695249.09747                  21398736.9204
        51.0004         36.7504
  23645562.5294   -2288971.72349  -1768595.96547                  23645558.9994
        44.5004         27.7504
  21285521.0544    1106592.03949    852498.72647                  21285517.3534
        49.7504         38.5004
  20611796.9764    -166840.10549   -129021.97048                  20611791.0424
        53.2504         43.0004
 04  7  7 17  4 49.9990000  0  8G 3G 9G14G15G18G19G21G22
  21813110.7574    -491541.48049   -378249.48647                  21813109.3024
        48.5004         38.0004
  22950507.7624    -779451.58649   -601930.58547                  22950506.3944
        44.5004         29.0004
  20940226.2854   -2162591.55949  -1676620.04448                  20940223.7074
        51.7504         43.0004
  19917855.4204   -1065284.85249   -820712.01548                  19917853.0354
        51.2504         44.2504
  21400898.1394     908468.61749    704084.98447                  21400894.6664
        51.2504         37.0004
  23639924.9744   -2318596.54749  -1791680.22647                  23639921.8974
        44.0004         28.7504
  21288403.4434    1121739.23849    864301.73047                  21288399.9784
        49.5004         38.0004
  20611355.2434    -169160.38749   -130829.98448                  20611349.1244
        53.0004         43.5004
 04  7  7 17  4 59.9990000  0  8G 3G 9G14G15G18G19G21G22
  21812164.0014    -496519.11749   -382128.16247                  21812162.4414
        47.5004         37.0004
  22948845.5714    -788186.97349   -608737.37447                  22948844.3384
        44.5004         28.5004
  20935064.3024   -2189718.65249  -1697758.02148                  20935061.5054
        52.0004         42.7504
  19915337.8994   -1078514.28149   -831020.66748                  19915335.5994
        51.7504         43.5004
  21403054.1184     919799.69949    712914.39847                  21403051.2064
        51.5004         36.5004
  23634291.0274   -2348199.69949  -1814747.59947                  23634289.4894
        44.5004         29.2504
  21291289.3714    1136905.49249    876119.58147                  21291285.6574
        49.2504         38.2504
  20610913.5464    -171481.01649   -132638.26548                  20610907.8074
        53.0004         43.0004
 04  7  7 17  5  9.9990000  0  8G 3G 9G14G15G18G19G21G22
  21811223.1064    -501461.87949   -385979.66147                  21811221.9984
        48.0004         37.5004
  22947190.6044    -796885.46149   -615515.40047                  22947188.4634
        44.5004         28.5004
  20929906.6654   -2216821.89149  -1718877.42748                  20929903.8894
        51.0004         42.5004
  19912823.4544   -1091727.64849   -841316.80448                  19912820.9334
        52.2504         43.2504
  21405207.9814     931117.87149    721733.74947                  21405204.5374
        51.0004         36.2504
  23628661.7414   -2377785.60249  -1837801.52947                  23628659.3344
        43.5004         28.2504
  21294178.0274    1152086.28949    887948.75347                  21294174.9144
        49.5004         38.5004
  20610470.8154    -173806.50849   -134450.34248                  20610464.7174
        52.7504         42.5004
 04  7  7 17  5 19.9990000  0  8G 3G 9G14G15G18G19G21G22
  21810289.8534    -506366.85249   -389801.71447                  21810288.8464
        48.0004         37.5004
  22945542.7994    -805543.90249   -622262.23947                  22945541.1324
        45.0004         29.2504
  20924753.8054   -2243898.20349  -1739975.84248                  20924751.2894
        51.5004         42.0004
  19910312.7154   -1104921.85549   -851598.00348                  19910310.2374
        52.0004         43.5004
  21407359.9534     942426.09449    730545.34447                  21407356.8654
        51.0004         35.7504
  23623035.1454   -2407351.14149  -1860839.60647                  23623033.0704
        43.5004         27.7504
  21297070.7084    1167284.52349    899791.51847                  21297067.1124
        49.5004         38.0004
  20610028.0244    -176133.97749   -136263.94648                  20610022.6434
        52.2504         42.2504
 04  7  7 17  5 29.9990000  0  8G 3G 9G14G15G18G19G21G22
  21809364.1854    -511229.92249   -393591.13047                  21809362.9294
        48.7504         36.7504
  22943903.5904    -814158.21149   -628974.67947                  22943901.2454
        45.0004         27.7504
  20919607.5724   -2270943.54349  -1761050.13048                  20919604.8224
        51.5004         41.0004
  19907806.0224   -1118092.78949   -861861.06948                  19907803.8594
        51.7504         42.5004
  21409510.6154     953728.22349    739352.19847                  21409507.7514
        51.0004         35.2504
  23617413.9254   -2436892.30949  -1883858.66947                  23617412.0874
        42.7504         27.0004
  21299966.4054    1182504.21949    911651.00347                  21299962.8344
        50.0004         37.2504
  20609585.5224    -178459.40249   -138075.96948                  20609579.7284
        52.0004         41.0004
 04  7  7 17  5 39.9990000  0  8G 3G 9G14G15G18G19G21G22
  21808445.9614    -516054.99649   -397350.92247                  21808445.0934
        48.5004         37.5004
  22942272.4874    -822732.14849   -635655.67447                  22942270.3264
        45.0004         29.5004
  20914466.3644   -2297961.62549  -1782103.17948                  20914463.2884
        51.0004         41.7504
  19905303.8254   -1131244.22349   -872108.94448                  19905301.4894
        51.0004         43.5004
  21411659.6564     965020.52749    748151.38747                  21411656.5434
        50.7504         36.5004
  23611795.9314   -2466412.80549  -1906861.62147                  23611794.7404
        42.7504         27.7504
  21302866.0324    1197741.64149    923524.30247                  21302862.7574
        50.2504         37.7504
  20609142.4284    -180786.62949   -139889.39548                  20609136.7084
        51.2504         42.2504
 04  7  7 17  5 49.9990000  0  8G 3G 9G14G15G18G19G21G22
  21807534.0384    -520849.27349   -401086.73147                  21807532.7954
        49.5004         37.5004
  22940646.9624    -831272.84449   -642310.75747                  22940644.9984
        45.0004         30.0004
  20909328.5724   -2324959.62149  -1803140.56948                  20909326.1784
        51.5004         41.5004
  19902803.5034   -1144383.23849   -882347.13848                  19902800.6574
        51.7504         43.5004
  21413805.1974     976295.92649    756937.40147                  21413802.0354
        50.5004         36.5004
  23606181.2184   -2495919.60249  -1929853.93647                  23606178.8964
        42.2504         27.2504
  21305767.9554    1212989.72349    935405.90547                  21305764.3894
        50.0004         37.5004
  20608698.2124    -183122.80149   -141709.79648                  20608692.4524
        51.5004         42.0004
 04  7  7 17  5 59.9990000  0  8G 3G 9G14G15G18G19G21G22
  21806628.8164    -525604.74249   -404792.29647                  21806628.1704
        49.0004         38.5004
  22939029.1214    -839772.27749   -648933.68047                  22939028.0544
        44.0004         29.2504
  20904196.2564   -2351929.47749  -1824156.04148                  20904194.1024
        51.0004         41.7504
  19900307.3264   -1157501.84849   -892569.42648                  19900304.5114
        51.2504         43.7504
  21415948.9264     987562.34849    765716.42547                  21415946.1554
        50.5004         36.7504
  23600570.5174   -2525404.65649  -1952829.26947                  23600568.7164
        42.7504         27.5004
  21308672.9634    1228256.32049    947301.93547                  21308669.5974
        50.5004         37.7504
  20608253.1674    -185460.02049   -143530.99848                  20608247.0844
        51.5004         43.0004
 04  7  7 17  6  9.9990000  0  8G 3G 9G14G15G18G19G21G22
  21805730.4814    -530323.24249   -408469.01947                  21805729.9334
        48.7504         38.0004
  22937419.5504    -848232.19949   -655525.80747                  22937417.8444
        44.2504         30.2504
  20899069.2724   -2378872.91449  -1845150.91248                  20899066.6064
        51.0004         41.5004
  19897814.1994   -1170601.75849   -902777.13948                  19897811.8704
        51.5004         43.7504
  21418090.9604     998817.89549    774486.99547                  21418087.4704
        50.7504         36.2504
  23594963.2924   -2554869.70749  -1975789.05547                  23594961.3474
        41.5004         27.5004
  21311580.9134    1243539.53949    959210.93447                  21311577.6624
        50.2504         37.7504
  20607808.1724    -187800.04349   -145354.38048                  20607801.9994
        51.5004         42.2504
 04  7  7 17  6 19.9990000  0  8G 3G 9G14G15G18G19G21G22
  21804839.5314    -535004.31649   -412116.61647                  21804838.9144
        48.2504         37.5004
  22935817.1444    -856652.09849   -662086.78347                  22935815.7004
        44.0004         30.5004
  20893947.1244   -2405789.38349  -1866124.76948                  20893944.8514
        51.5004         41.2504
  19895324.9494   -1183682.47349   -912969.89548                  19895322.5284
        52.0004         43.7504
  21420230.6434    1010063.03949    783249.44447                  21420227.7004
        50.7504         37.0004
  23589359.3584   -2584314.22349  -1998732.85147                  23589357.4244
        42.5004         27.2504
  21314492.7024    1258839.91849    971133.29247                  21314489.4104
        50.2504         37.2504
  20607362.0654    -190142.49249   -147179.66948                  20607356.0624
        51.7504         42.5004
 04  7  7 17  6 29.9990000  0  8G 3G 9G14G15G18G19G21G22
  21803955.8774    -539648.63349   -415735.57847                  21803955.0594
        49.0004         38.0004
  22934222.0464    -865032.61349   -668617.06247                  22934221.1694
        42.2504         29.7504
  20888830.1714   -2432679.56249  -1887078.17248                  20888827.2664
        52.0004         41.5004
  19892839.6804   -1196744.59849   -923148.19748                  19892836.6604
        52.0004         43.7504
  21422368.6084    1021296.98849    792003.15047                  21422365.3294
        50.5004         36.0004
  23583760.5184   -2613738.81649  -2021661.07347                  23583758.2714
        42.0004         27.0004
  21317407.7654    1274156.64149    983068.36747                  21317404.2564
        50.2504         37.7504
  20606915.9994    -192488.09449   -149007.41848                  20606909.9994
        51.0004         42.5004
 04  7  7 17  6 39.9990000  0  8G 3G 9G14G15G18G19G21G22
  21803079.4174    -544256.37949   -419326.03147                  21803077.9054
        48.5004         37.2504
  22932634.9594    -873373.78149   -675116.68547                  22932633.8754
        44.0004         29.0004
  20883717.6814   -2459543.39149  -1908011.02048                  20883715.2734
        51.7504         40.7504
  19890357.5584   -1209788.13749   -933311.99048                  19890354.3204
        51.7504         43.0004
  21424504.2194    1032519.80949    800748.19947                  21424501.0294
        51.0004         35.5004
  23578164.4184   -2643143.37549  -2044573.67847                  23578162.6274
        42.0004         26.5004
  21320325.1944    1289489.73849    995016.22147                  21320322.0384
        50.2504         37.2504
  20606468.9234    -194836.88749   -150837.65348                  20606463.7034
        51.0004         41.7504
 04  7  7 17  6 49.9990000  0  8G 3G 9G14G15G18G19G21G22
  21802209.6234    -548829.28549   -422889.31947                  21802208.4104
        48.0004         37.5004
  22931055.0734    -881677.33649   -681586.98347                  22931053.7804
        44.0004         29.5004
  20878610.6594   -2486382.60249  -1928924.67248                  20878608.3324
        52.0004         41.2504
  19887878.2624   -1222814.75449   -943462.59048                  19887875.8984
        51.5004         44.0004
  21426637.4914    1043729.73049    809483.20147                  21426634.2794
        50.7504         36.5004
  23572572.9264   -2672529.64549  -2067472.10647                  23572570.9644
        40.5004         26.2504
  21323246.0344    1304837.41049   1006975.43347                  21323242.6264
        50.0004         37.5004
  20606020.8824    -197190.69149   -152671.77048                  20606015.6134
        49.7504         42.5004
 04  7  7 17  6 59.9990000  0  8G 3G 9G14G15G18G19G21G22
  21801345.7714    -553366.32449   -426424.68947                  21801344.4084
        48.0004         37.7504
  22929482.0314    -889942.15249   -688027.10647                  22929480.8864
        43.5004         30.7504
  20873508.1014   -2513196.16049  -1949818.36348                  20873505.2914
        52.0004         41.7504
  19885403.3204   -1235823.35249   -953599.17248                  19885400.5484
        52.2504         44.0004
  21428768.2774    1054927.67249    818208.86647                  21428765.4914
        50.0004         36.0004
  23566984.5804   -2701896.56649  -2090355.37447                  23566982.0034
        39.5004         26.0004
  21326169.5334    1320200.62149   1018946.73147                  21326166.0844
        49.2504         37.7504
  20605572.4764    -199548.48849   -154509.02148                  20605567.0984
        51.0004         42.5004
 04  7  7 17  7  9.9990000  0  8G 3G 9G14G15G18G19G21G22
  21800489.5564    -557866.12949   -429931.02247                  21800488.4044
        47.7504         38.0004
  22927917.1254    -898166.82449   -694435.93147                  22927916.0104
        44.0004         30.7504
  20868411.1544   -2539982.62549  -1970690.90948                  20868408.7364
        51.5004         41.5004
  19882931.3224   -1248812.48049   -963720.54948                  19882928.7814
        51.0004         44.7504
  21430896.7844    1066114.92649    826926.20147                  21430893.9084
        50.7504         36.0004
  23561399.6844   -2731242.64849  -2113222.43347                  23561397.6024
        41.5004         26.5004
  21329096.7214    1335580.87549   1030931.34247                  21329092.8744
        50.7504         38.5004
  20605123.1184    -201909.00049   -156348.36948                  20605118.3324
        50.0004         43.0004
 04  7  7 17  7 19.9990000  0  8G 3G 9G14G15G18G19G21G22
  21799641.2594    -562325.18449   -433405.61147                  21799640.2834
        47.0004         37.7504
  22926360.5774    -906347.70749   -700810.66247                  22926359.3014
        43.2504         31.2504
  20863319.4354   -2566738.35549  -1991539.53248                  20863316.5234
        50.7504         41.0004
  19880463.9444   -1261778.57849   -973824.01348                  19880461.4504
        52.0004         44.5004
  21433024.5024    1077295.09049    835638.01147                  21433021.6284
        49.7504         36.0004
  23555820.0394   -2760564.28149  -2136070.46047                  23555818.3174
        40.2504         26.5004
  21332027.2674    1350981.62949   1042931.90547                  21332024.0464
        49.5004         38.2504
  20604673.9614    -204268.64849   -158187.06048                  20604668.7794
        51.2504         43.0004
 04  7  7 17  7 29.9990000  0  8G 3G 9G14G15G18G19G21G22
  21798799.8134    -566746.77049   -436851.00047                  21798798.9524
        48.0004         37.7504
  22924811.1444    -914488.02349   -707153.75247                  22924810.1824
        45.0004         31.5004
  20858233.0514   -2593466.72349  -2012366.81748                  20858230.3214
        51.7504         41.5004
  19878000.5074   -1274724.87149   -983912.03148                  19877998.0034
        51.7504         44.2504
  21435150.4894    1088464.86349    844341.72247                  21435147.0514
        50.2504         35.7504
  23550244.9284   -2789864.66849  -2158901.88847                  23550242.6864
        41.7504         27.5004
  21334961.2704    1366399.62549   1054945.91847                  21334957.5784
        49.2504         38.5004
  20604224.7394    -206630.78149   -160027.69548                  20604219.5394
        50.5004         43.0004
 04  7  7 17  7 39.9990000  0  8G 3G 9G14G15G18G19G21G22
  21797965.4604    -571130.25449   -440266.70647                  21797964.2864
        47.2504         37.7504
  22923270.0234    -922587.08249   -713464.70347                  22923269.3704
        44.0004         30.5004
  20853152.3684   -2620166.83649  -2033172.08548                  20853149.7824
        51.7504         41.5004
  19875540.8754   -1287650.50449   -993983.95748                  19875537.9234
        50.0004         44.5004
  21437273.7754    1099624.80549    853037.78747                  21437270.8004
        50.0004         36.2504
  23544673.6714   -2819142.99649  -2181716.15047                  23544671.0394
        42.2504         28.5004
  21337898.2704    1381835.49649   1066973.86347                  21337895.1024
        48.2504         38.5004
  20603774.9164    -208994.69949   -161869.70048                  20603770.1034
        48.5004         43.5004
